| time (UTC) | temp F | wind direction | speed MPH | gust MPH | rain 1hr in | rain 24hr in | rain mn in | humidity % | barometer mb |
| 20260903213042 | 70 | 327 | 0.0 | 2.0 | 0.00 | 0.00 | 0.00 | 61 | 1020.0 |
| 20260903211531 | 71 | 324 | 0.0 | 4.0 | 0.00 | 0.00 | 0.00 | 61 | 1019.7 |
| 20260903210033 | 71 | 321 | 0.0 | 3.0 | 0.00 | 0.00 | 0.00 | 60 | 1019.6 |
| 20260903204530 | 71 | 348 | 0.0 | 3.0 | 0.00 | 0.00 | 0.00 | 59 | 1019.8 |
| 20260903203029 | 71 | 321 | 0.0 | 4.0 | 0.00 | 0.00 | 0.00 | 59 | 1019.8 |
| 20260903201529 | 72 | 325 | 1.0 | 6.0 | 0.00 | 0.00 | 0.00 | 58 | 1019.9 |
| 20260903200029 | 72 | 32 | 0.0 | 4.0 | 0.00 | 0.00 | 0.00 | 56 | 1019.9 |
| 20260903194528 | 73 | 319 | 1.0 | 6.0 | 0.00 | 0.00 | 0.00 | 55 | 1019.8 |
| 20260903193028 | 74 | 338 | 1.0 | 10.0 | 0.00 | 0.00 | 0.00 | 53 | 1019.7 |
| 20260903191537 | 75 | 34 | 0.0 | 6.0 | 0.00 | 0.00 | 0.00 | 51 | 1019.5 |
| 20260903190027 | 75 | 340 | 0.0 | 8.0 | 0.00 | 0.00 | 0.00 | 49 | 1019.1 |
| 20260903184526 | 76 | 347 | 1.0 | 9.0 | 0.00 | 0.00 | 0.00 | 48 | 1018.8 |
| 20260903183030 | 76 | 334 | 0.0 | 2.0 | 0.00 | 0.00 | 0.00 | 49 | 1018.7 |
| 20260903181526 | 76 | 333 | 0.0 | 2.0 | 0.00 | 0.00 | 0.00 | 48 | 1018.5 |
| 20260903180032 | 76 | 333 | 0.0 | 4.0 | 0.00 | 0.00 | 0.00 | 47 | 1018.4 |
| 20260903174525 | 76 | 332 | 0.0 | 5.0 | 0.00 | 0.00 | 0.00 | 47 | 1018.2 |
| 20260903173024 | 77 | 338 | 0.0 | 5.0 | 0.00 | 0.00 | 0.00 | 46 | 1018.1 |
| 20260903171530 | 77 | 303 | 0.0 | 4.0 | 0.00 | 0.00 | 0.00 | 46 | 1018.1 |
| 20260903170024 | 78 | 326 | 1.0 | 6.0 | 0.00 | 0.00 | 0.00 | 45 | 1018.2 |
| 20260903164523 | 78 | 330 | 0.0 | 4.0 | 0.00 | 0.00 | 0.00 | 44 | 1018.2 |
| 20260903163023 | 78 | 351 | 0.0 | 5.0 | 0.00 | 0.00 | 0.00 | 44 | 1018.0 |
| 20260903161522 | 79 | 26 | 0.0 | 2.0 | 0.00 | 0.00 | 0.00 | 44 | 1018.0 |
| 20260903160022 | 79 | 17 | 0.0 | 5.0 | 0.00 | 0.00 | 0.00 | 43 | 1018.0 |
| 20260903154521 | 80 | 294 | 2.0 | 6.0 | 0.00 | 0.00 | 0.00 | 42 | 1017.9 |
| 20260903153020 | 80 | 351 | 1.0 | 10.0 | 0.00 | 0.00 | 0.00 | 42 | 1017.6 |
| 20260903151518 | 80 | 360 | 0.0 | 5.0 | 0.00 | 0.00 | 0.00 | 42 | 1017.9 |
| 20260903150020 | 80 | 199 | 0.0 | 9.0 | 0.00 | 0.00 | 0.00 | 42 | 1017.8 |
| 20260903144520 | 81 | 126 | 1.0 | 9.0 | 0.00 | 0.00 | 0.00 | 41 | 1017.9 |
| 20260903143018 | 81 | 309 | 2.0 | 8.0 | 0.00 | 0.00 | 0.00 | 41 | 1017.9 |
| 20260903141517 | 82 | 355 | 0.0 | 4.0 | 0.00 | 0.00 | 0.00 | 40 | 1018.0 |
| 20260903140017 | 82 | 327 | 2.0 | 12.0 | 0.00 | 0.00 | 0.00 | 39 | 1018.0 |
| 20260903134516 | 82 | 360 | 0.0 | 10.0 | 0.00 | 0.00 | 0.00 | 40 | 1017.9 |
| 20260903133015 | 82 | 312 | 2.0 | 9.0 | 0.00 | 0.00 | 0.00 | 39 | 1017.8 |
| 20260903131517 | 82 | 316 | 0.0 | 10.0 | 0.00 | 0.00 | 0.00 | 39 | 1018.0 |
| 20260903130013 | 83 | 338 | 1.0 | 5.0 | 0.00 | 0.00 | 0.00 | 38 | 1018.0 |
| 20260903124512 | 82 | 288 | 3.0 | 12.0 | 0.00 | 0.00 | 0.00 | 38 | 1018.0 |
| 20260903123011 | 84 | 333 | 2.0 | 10.0 | 0.00 | 0.00 | 0.00 | 36 | 1018.3 |
| 20260903121521 | 83 | 323 | 2.0 | 8.0 | 0.00 | 0.00 | 0.00 | 39 | 1018.5 |
| 20260903120009 | 84 | 344 | 1.0 | 16.0 | 0.00 | 0.00 | 0.00 | 38 | 1018.5 |
| 20260903114506 | 83 | 319 | 2.0 | 8.0 | 0.00 | 0.00 | 0.00 | 38 | 1018.6 |
| 20260903113007 | 83 | 340 | 3.0 | 12.0 | 0.00 | 0.00 | 0.00 | 38 | 1018.7 |
| 20260903111501 | 82 | 335 | 3.0 | 12.0 | 0.00 | 0.00 | 0.00 | 37 | 1018.7 |
| 20260903110103 | 80 | 44 | 1.0 | 14.0 | 0.00 | 0.00 | 0.00 | 40 | 1018.9 |
| 20260903104558 | 80 | 43 | 2.0 | 8.0 | 0.00 | 0.00 | 0.00 | 39 | 1018.9 |
| 20260903103057 | 80 | 323 | 1.0 | 9.0 | 0.00 | 0.00 | 0.00 | 40 | 1019.0 |
| 20260903101553 | 79 | 325 | 1.0 | 10.0 | 0.00 | 0.00 | 0.00 | 41 | 1019.1 |
| 20260903100050 | 78 | 310 | 2.0 | 7.0 | 0.00 | 0.00 | 0.00 | 41 | 1019.3 |
| 20260903094547 | 78 | 326 | 1.0 | 6.0 | 0.00 | 0.00 | 0.00 | 46 | 1019.4 |
| 20260903093045 | 78 | 109 | 0.0 | 2.0 | 0.00 | 0.00 | 0.00 | 51 | 1019.7 |
| 20260903091545 | 78 | 241 | 0.0 | 4.0 | 0.00 | 0.00 | 0.00 | 51 | 1019.7 |
| 20260903090048 | 76 | 130 | 0.0 | 2.0 | 0.00 | 0.00 | 0.00 | 55 | 1019.9 |
| 20260903084541 | 76 | 148 | 0.0 | 4.0 | 0.00 | 0.00 | 0.00 | 54 | 1020.0 |
| 20260903083044 | 75 | 128 | 0.0 | 4.0 | 0.00 | 0.00 | 0.00 | 58 | 1020.1 |
| 20260903081533 | 74 | 106 | 0.0 | 3.0 | 0.00 | 0.00 | 0.00 | 59 | 1020.2 |
| 20260903080029 | 72 | 346 | 0.0 | 1.0 | 0.00 | 0.00 | 0.00 | 61 | 1020.4 |
| 20260903074526 | 71 | 346 | 0.0 | 0.0 | 0.00 | 0.00 | 0.00 | 61 | 1020.4 |
| 20260903073026 | 71 | 346 | 0.0 | 0.0 | 0.00 | 0.00 | 0.00 | 62 | 1020.3 |
| 20260903071527 | 70 | 347 | 0.0 | 0.0 | 0.00 | 0.00 | 0.00 | 62 | 1020.3 |
| 20260903070020 | 70 | 348 | 0.0 | 0.0 | 0.00 | 0.00 | 0.00 | 62 | 1020.3 |
| 20260903064516 | 69 | 347 | 0.0 | 0.0 | 0.00 | 0.00 | 0.00 | 64 | 1020.2 |
| 20260903063016 | 68 | 346 | 0.0 | 0.0 | 0.00 | 0.00 | 0.00 | 66 | 1020.1 |
| 20260903061509 | 66 | 346 | 0.0 | 0.0 | 0.00 | 0.00 | 0.00 | 69 | 1020.3 |
| 20260903060007 | 65 | 346 | 0.0 | 0.0 | 0.00 | 0.00 | 0.00 | 68 | 1020.3 |
| 20260903054511 | 65 | 346 | 0.0 | 0.0 | 0.00 | 0.00 | 0.00 | 69 | 1020.3 |
| 20260903053002 | 64 | 346 | 0.0 | 0.0 | 0.00 | 0.00 | 0.00 | 70 | 1020.1 |
| 20260903051559 | 64 | 346 | 0.0 | 0.0 | 0.00 | 0.00 | 0.00 | 69 | 1020.0 |
| 20260903050057 | 64 | 346 | 0.0 | 0.0 | 0.00 | 0.00 | 0.00 | 69 | 1020.0 |
| 20260903044559 | 63 | 346 | 0.0 | 0.0 | 0.00 | 0.00 | 0.00 | 70 | 1019.9 |
| 20260903043055 | 63 | 346 | 0.0 | 0.0 | 0.00 | 0.00 | 0.00 | 71 | 1019.7 |
| 20260903041609 | 63 | 346 | 0.0 | 0.0 | 0.00 | 0.00 | 0.00 | 73 | 1019.5 |
| 20260903040054 | 63 | 346 | 0.0 | 0.0 | 0.00 | 0.00 | 0.00 | 72 | 1019.7 |
| 20260903034553 | 63 | 346 | 0.0 | 0.0 | 0.00 | 0.00 | 0.00 | 72 | 1019.6 |
| 20260903033052 | 63 | 346 | 0.0 | 0.0 | 0.00 | 0.00 | 0.00 | 72 | 1019.6 |
| 20260903031551 | 63 | 346 | 0.0 | 0.0 | 0.00 | 0.00 | 0.00 | 71 | 1019.6 |
| 20260903030051 | 63 | 346 | 0.0 | 0.0 | 0.00 | 0.00 | 0.00 | 70 | 1019.6 |
| 20260903024549 | 63 | 346 | 0.0 | 0.0 | 0.00 | 0.00 | 0.00 | 69 | 1019.5 |
| 20260903023048 | 63 | 346 | 0.0 | 0.0 | 0.00 | 0.00 | 0.00 | 69 | 1019.5 |
| 20260903021546 | 64 | 346 | 0.0 | 0.0 | 0.00 | 0.00 | 0.00 | 68 | 1019.5 |
| 20260903020052 | 64 | 346 | 0.0 | 0.0 | 0.00 | 0.00 | 0.00 | 66 | 1019.6 |
| 20260903014605 | 65 | 346 | 0.0 | 0.0 | 0.00 | 0.00 | 0.00 | 66 | 1019.7 |
| 20260903013059 | 65 | 346 | 0.0 | 0.0 | 0.00 | 0.00 | 0.00 | 66 | 1019.8 |
| 20260903011610 | 64 | 346 | 0.0 | 0.0 | 0.00 | 0.00 | 0.00 | 67 | 1019.9 |
| 20260903010058 | 64 | 346 | 0.0 | 0.0 | 0.00 | 0.00 | 0.00 | 67 | 1019.8 |
| 20260903004542 | 64 | 346 | 0.0 | 0.0 | 0.00 | 0.00 | 0.00 | 67 | 1019.8 |
| 20260903003053 | 64 | 346 | 0.0 | 0.0 | 0.00 | 0.00 | 0.00 | 68 | 1019.8 |
| 20260903001553 | 63 | 346 | 0.0 | 0.0 | 0.00 | 0.00 | 0.00 | 69 | 1019.8 |
| 20260903000046 | 63 | 346 | 0.0 | 0.0 | 0.00 | 0.00 | 0.00 | 67 | 1019.8 |
| 20260902234542 | 63 | 346 | 0.0 | 0.0 | 0.00 | 0.00 | 0.00 | 67 | 1019.8 |
| 20260902233037 | 64 | 346 | 0.0 | 0.0 | 0.00 | 0.00 | 0.00 | 65 | 1019.7 |
| 20260902231544 | 65 | 346 | 0.0 | 0.0 | 0.00 | 0.00 | 0.00 | 64 | 1019.8 |
| 20260902230033 | 65 | 346 | 0.0 | 0.0 | 0.00 | 0.00 | 0.00 | 63 | 1019.7 |
| 20260902224530 | 65 | 346 | 0.0 | 0.0 | 0.00 | 0.00 | 0.00 | 63 | 1019.7 |
| 20260902223038 | 66 | 346 | 0.0 | 0.0 | 0.00 | 0.00 | 0.00 | 62 | 1019.7 |
| 20260902221532 | 66 | 346 | 0.0 | 0.0 | 0.00 | 0.00 | 0.00 | 62 | 1019.7 |
| 20260902220033 | 65 | 346 | 0.0 | 0.0 | 0.00 | 0.00 | 0.00 | 62 | 1019.7 |
| 20260902214527 | 66 | 346 | 0.0 | 0.0 | 0.00 | 0.00 | 0.00 | 62 | 1019.7 |